Terminal Aerodrome Forecast
Issued by NWS Billings, MT

Home | Current Version | Previous Version | Graphics & Text | Print | Product List | Glossary On
Versions: 1 2 3 4 5 6 7 8 9 10 11 12 13 14 15 16 17 18 19 20 21 22 23 24 25 26 27 28 29 30 31 32 33 34 35 36 37
000
FTUS45 KBYZ 010522
TAFMLS
TAF
KMLS 010522Z 0106/0206 33011KT P6SM FEW070
     FM011400 33010KT P6SM SCT060
     FM012000 34011KT P6SM VCTS SCT060CB BKN100
     FM020300 02011G20KT P6SM VCTS SCT090CB=

USA.gov is the U.S. government's official web portal to all federal, state and local government web resources and services.